| time (UTC) | temp F | wind direction | speed knots | gust knots | rain 1hr in | rain 24hr in | rain mn in | humidity % | barometer mb |
| 20260508050703 | 89 | 33 | 4.3 | 7.0 | 0.00 | 0.00 | 0.00 | 73 | 1012.0 |
| 20260508050203 | 88 | 24 | 2.6 | 6.1 | 0.00 | 0.00 | 0.00 | 72 | 1012.0 |
| 20260508045703 | 89 | 285 | 2.6 | 5.2 | 0.00 | 0.00 | 0.00 | 72 | 1012.2 |
| 20260508045202 | 88 | 277 | 2.6 | 5.2 | 0.00 | 0.00 | 0.00 | 73 | 1012.3 |
| 20260508044703 | 87 | 298 | 0.9 | 2.6 | 0.00 | 0.00 | 0.00 | 75 | 1012.2 |
| 20260508044203 | 87 | 266 | 2.6 | 5.2 | 0.00 | 0.00 | 0.00 | 75 | 1012.3 |
| 20260508043703 | 87 | 359 | 2.6 | 6.1 | 0.00 | 0.00 | 0.00 | 73 | 1012.5 |
| 20260508043203 | 87 | 234 | 1.7 | 4.3 | 0.00 | 0.00 | 0.00 | 74 | 1012.5 |
| 20260508042703 | 87 | 321 | 2.6 | 5.2 | 0.00 | 0.00 | 0.00 | 74 | 1012.5 |
| 20260508042203 | 87 | 307 | 3.5 | 6.1 | 0.00 | 0.00 | 0.00 | 74 | 1012.5 |
| 20260508041703 | 88 | 355 | 4.3 | 7.8 | 0.00 | 0.00 | 0.00 | 73 | 1012.6 |
| 20260508041203 | 89 | 240 | 0.9 | 2.6 | 0.00 | 0.00 | 0.00 | 72 | 1012.7 |
| 20260508040704 | 89 | 341 | 2.6 | 6.1 | 0.00 | 0.00 | 0.00 | 70 | 1012.8 |
| 20260508040203 | 90 | 318 | 1.7 | 4.3 | 0.00 | 0.00 | 0.00 | 70 | 1012.8 |
| 20260508035703 | 89 | 184 | 0.9 | 2.6 | 0.00 | 0.00 | 0.00 | 70 | 1012.8 |
| 20260508035203 | 88 | 173 | 0.9 | 2.6 | 0.00 | 0.00 | 0.00 | 73 | 1012.9 |
| 20260508034703 | 88 | 17 | 1.7 | 6.1 | 0.00 | 0.00 | 0.00 | 72 | 1012.9 |
| 20260508034203 | 89 | 8 | 0.9 | 2.6 | 0.00 | 0.00 | 0.00 | 72 | 1012.9 |
| 20260508033704 | 88 | 79 | 1.7 | 4.3 | 0.00 | 0.00 | 0.00 | 71 | 1013.0 |
| 20260508033202 | 88 | 97 | 0.9 | 2.6 | 0.00 | 0.00 | 0.00 | 71 | 1013.2 |
| 20260508032703 | 89 | 301 | 2.6 | 4.3 | 0.00 | 0.00 | 0.00 | 70 | 1013.2 |
| 20260508031703 | 89 | 16 | 0.9 | 2.6 | 0.00 | 0.00 | 0.00 | 71 | 1013.4 |
| 20260508031203 | 88 | 92 | 0.9 | 1.7 | 0.00 | 0.00 | 0.00 | 72 | 1013.5 |
| 20260508030703 | 86 | 133 | 0.9 | 2.6 | 0.00 | 0.00 | 0.00 | 74 | 1013.6 |
| 20260508030203 | 86 | 350 | 2.6 | 5.2 | 0.00 | 0.00 | 0.00 | 75 | 1013.6 |
| 20260508025703 | 85 | 296 | 0.9 | 4.3 | 0.00 | 0.00 | 0.00 | 75 | 1013.8 |
| 20260508025206 | 85 | 278 | 1.7 | 2.6 | 0.00 | 0.00 | 0.00 | 76 | 1013.8 |
| 20260508024203 | 84 | 20 | 3.5 | 5.2 | 0.00 | 0.00 | 0.00 | 74 | 1013.8 |
| 20260508023703 | 86 | 5 | 1.7 | 5.2 | 0.00 | 0.00 | 0.00 | 74 | 1013.9 |
| 20260508023204 | 86 | 260 | 0.9 | 2.6 | 0.00 | 0.00 | 0.00 | 75 | 1014.1 |
| 20260508022703 | 85 | 239 | 0.9 | 4.3 | 0.00 | 0.00 | 0.00 | 76 | 1014.1 |
| 20260508022204 | 84 | 45 | 0.9 | 2.6 | 0.00 | 0.00 | 0.00 | 78 | 1014.0 |
| 20260508021704 | 84 | 7 | 2.6 | 4.3 | 0.00 | 0.00 | 0.00 | 77 | 1014.1 |
| 20260508021203 | 84 | 60 | 1.7 | 4.3 | 0.00 | 0.00 | 0.00 | 78 | 1014.2 |
| 20260508020703 | 83 | 339 | 1.7 | 6.1 | 0.00 | 0.00 | 0.00 | 80 | 1014.2 |
| 20260508020203 | 84 | 11 | 2.6 | 5.2 | 0.00 | 0.00 | 0.00 | 79 | 1014.3 |
| 20260508015703 | 84 | 269 | 1.7 | 4.3 | 0.00 | 0.00 | 0.00 | 78 | 1014.2 |
| 20260508015203 | 84 | 29 | 1.7 | 4.3 | 0.00 | 0.00 | 0.00 | 78 | 1014.2 |
| 20260508014703 | 84 | 0 | 1.7 | 5.2 | 0.00 | 0.00 | 0.00 | 78 | 1014.3 |
| 20260508014203 | 84 | 279 | 2.6 | 7.0 | 0.00 | 0.00 | 0.00 | 78 | 1014.3 |
| 20260508013203 | 84 | 0 | 0.9 | 5.2 | 0.00 | 0.00 | 0.00 | 79 | 1014.3 |
| 20260508012703 | 84 | 352 | 1.7 | 4.3 | 0.00 | 0.00 | 0.00 | 78 | 1014.3 |
| 20260508011704 | 83 | 344 | 1.7 | 2.6 | 0.00 | 0.00 | 0.00 | 79 | 1014.2 |
| 20260508011203 | 83 | 6 | 0.9 | 1.7 | 0.00 | 0.00 | 0.00 | 81 | 1014.2 |
| 20260508010704 | 82 | 57 | 0.9 | 2.6 | 0.00 | 0.00 | 0.00 | 81 | 1014.0 |
| 20260508010204 | 82 | 76 | 1.7 | 1.7 | 0.00 | 0.00 | 0.00 | 80 | 1014.1 |
| 20260508005703 | 82 | 183 | 1.7 | 1.7 | 0.00 | 0.00 | 0.00 | 81 | 1013.9 |
| 20260508005204 | 82 | 180 | 0.9 | 1.7 | 0.00 | 0.00 | 0.00 | 82 | 1013.9 |
| 20260508004203 | 82 | 187 | 0.9 | 1.7 | 0.00 | 0.00 | 0.00 | 82 | 1013.9 |
| 20260508003703 | 81 | 65 | 0.0 | 0.9 | 0.00 | 0.00 | 0.00 | 83 | 1013.9 |
| 20260508003203 | 81 | 65 | 0.0 | 0.0 | 0.00 | 0.00 | 0.00 | 83 | 1013.8 |
| 20260508002704 | 80 | 66 | 0.0 | 0.0 | 0.00 | 0.00 | 0.00 | 84 | 1013.9 |
| 20260508002203 | 80 | 66 | 0.0 | 0.9 | 0.00 | 0.00 | 0.00 | 84 | 1013.8 |
| 20260508001703 | 80 | 72 | 0.9 | 1.7 | 0.00 | 0.00 | 0.00 | 84 | 1013.9 |
| 20260508001203 | 80 | 61 | 0.0 | 1.7 | 0.00 | 0.00 | 0.00 | 84 | 1014.0 |
| 20260508000703 | 80 | 62 | 0.9 | 1.7 | 0.00 | 0.00 | 0.00 | 83 | 1013.9 |
| 20260508000204 | 81 | 91 | 0.9 | 1.7 | 0.00 | 0.00 | 0.00 | 83 | 1013.8 |
| 20260507235704 | 81 | 88 | 0.0 | 1.7 | 0.00 | 0.00 | 0.00 | 84 | 1013.8 |
| 20260507235203 | 81 | 68 | 0.9 | 1.7 | 0.00 | 0.00 | 0.00 | 84 | 1013.9 |
| 20260507234704 | 80 | 169 | 0.0 | 1.7 | 0.00 | 0.00 | 0.00 | 85 | 1013.8 |
| 20260507233203 | 79 | 88 | 0.0 | 0.9 | 0.00 | 0.00 | 0.00 | 87 | 1013.5 |
| 20260507232704 | 78 | 84 | 0.9 | 1.7 | 0.00 | 0.00 | 0.00 | 88 | 1013.4 |
| 20260507232203 | 77 | 56 | 0.0 | 0.9 | 0.00 | 0.00 | 0.00 | 88 | 1013.5 |
| 20260507230703 | 77 | 89 | 0.9 | 1.7 | 0.00 | 0.00 | 0.00 | 89 | 1013.4 |
| 20260507230204 | 77 | 89 | 0.9 | 1.7 | 0.00 | 0.00 | 0.00 | 89 | 1013.3 |
| 20260507225703 | 77 | 80 | 0.9 | 1.7 | 0.00 | 0.00 | 0.00 | 89 | 1013.4 |
| 20260507225203 | 77 | 90 | 0.0 | 0.9 | 0.00 | 0.00 | 0.00 | 89 | 1013.4 |
| 20260507224704 | 77 | 92 | 0.0 | 1.7 | 0.00 | 0.00 | 0.00 | 89 | 1013.3 |
| 20260507224203 | 77 | 52 | 0.0 | 1.7 | 0.00 | 0.00 | 0.00 | 89 | 1013.1 |
| 20260507223703 | 77 | 74 | 1.7 | 2.6 | 0.00 | 0.00 | 0.00 | 89 | 1013.1 |
| 20260507223203 | 76 | 75 | 0.9 | 0.9 | 0.00 | 0.00 | 0.00 | 90 | 1013.1 |
| 20260507222204 | 76 | 83 | 0.0 | 1.7 | 0.00 | 0.00 | 0.00 | 90 | 1012.8 |
| 20260507220703 | 76 | 71 | 0.9 | 1.7 | 0.00 | 0.00 | 0.00 | 89 | 1012.7 |
| 20260507215703 | 76 | 93 | 0.9 | 1.7 | 0.00 | 0.00 | 0.00 | 89 | 1012.6 |
| 20260507215204 | 76 | 86 | 0.9 | 1.7 | 0.00 | 0.00 | 0.00 | 89 | 1012.5 |
| 20260507214704 | 76 | 106 | 0.0 | 0.0 | 0.00 | 0.00 | 0.00 | 90 | 1012.3 |
| 20260507214203 | 76 | 106 | 0.0 | 0.9 | 0.00 | 0.00 | 0.00 | 89 | 1012.3 |
| 20260507213703 | 76 | 103 | 0.9 | 0.9 | 0.00 | 0.00 | 0.00 | 89 | 1012.4 |
| 20260507213203 | 76 | 71 | 0.0 | 0.9 | 0.00 | 0.00 | 0.00 | 89 | 1012.3 |
| 20260507212704 | 76 | 71 | 0.0 | 0.9 | 0.00 | 0.00 | 0.00 | 89 | 1012.3 |
| 20260507211703 | 76 | 71 | 0.0 | 0.9 | 0.00 | 0.00 | 0.00 | 89 | 1012.2 |
| 20260507210703 | 77 | 71 | 0.0 | 0.9 | 0.00 | 0.00 | 0.00 | 89 | 1012.1 |
| 20260507210203 | 77 | 70 | 0.0 | 0.9 | 0.00 | 0.00 | 0.00 | 89 | 1012.0 |
| 20260507205703 | 77 | 70 | 0.0 | 0.9 | 0.00 | 0.00 | 0.00 | 89 | 1012.0 |
| 20260507205203 | 77 | 72 | 0.0 | 0.9 | 0.00 | 0.00 | 0.00 | 89 | 1011.9 |
| 20260507204703 | 77 | 72 | 0.9 | 1.7 | 0.00 | 0.00 | 0.00 | 89 | 1011.8 |
| 20260507204204 | 77 | 81 | 0.9 | 1.7 | 0.00 | 0.00 | 0.00 | 88 | 1011.6 |
| 20260507203704 | 77 | 92 | 0.0 | 0.9 | 0.00 | 0.00 | 0.00 | 88 | 1011.5 |
| 20260507202703 | 77 | 81 | 0.9 | 1.7 | 0.00 | 0.00 | 0.00 | 89 | 1011.6 |
| 20260507202203 | 77 | 66 | 0.0 | 0.9 | 0.00 | 0.00 | 0.00 | 88 | 1011.5 |
| 20260507201703 | 77 | 70 | 0.9 | 0.9 | 0.00 | 0.00 | 0.00 | 89 | 1011.4 |
| 20260507201203 | 77 | 60 | 0.0 | 0.9 | 0.00 | 0.00 | 0.00 | 89 | 1011.4 |
| 20260507195204 | 77 | 69 | 0.9 | 1.7 | 0.00 | 0.00 | 0.00 | 89 | 1011.3 |
| 20260507194704 | 77 | 77 | 0.9 | 1.7 | 0.00 | 0.00 | 0.00 | 89 | 1011.4 |
| 20260507193704 | 76 | 59 | 0.9 | 1.7 | 0.00 | 0.00 | 0.00 | 89 | 1011.3 |
| 20260507193203 | 77 | 80 | 1.7 | 2.6 | 0.00 | 0.00 | 0.00 | 89 | 1011.3 |
| 20260507192203 | 77 | 73 | 1.7 | 2.6 | 0.00 | 0.00 | 0.00 | 89 | 1011.4 |
| 20260507191203 | 77 | 76 | 0.9 | 1.7 | 0.00 | 0.00 | 0.00 | 89 | 1011.5 |
| 20260507190704 | 77 | 75 | 0.9 | 1.7 | 0.00 | 0.00 | 0.00 | 89 | 1011.5 |
| 20260507190204 | 77 | 62 | 0.9 | 2.6 | 0.00 | 0.00 | 0.00 | 89 | 1011.5 |
| 20260507185704 | 77 | 81 | 1.7 | 2.6 | 0.00 | 0.00 | 0.00 | 88 | 1011.6 |
| 20260507185203 | 77 | 79 | 0.9 | 2.6 | 0.00 | 0.00 | 0.00 | 89 | 1011.7 |
| 20260507184703 | 77 | 33 | 1.7 | 2.6 | 0.00 | 0.00 | 0.00 | 88 | 1011.7 |
| 20260507184204 | 77 | 74 | 0.9 | 2.6 | 0.00 | 0.00 | 0.00 | 88 | 1011.8 |
| 20260507183703 | 77 | 61 | 0.9 | 1.7 | 0.00 | 0.00 | 0.00 | 88 | 1011.8 |
| 20260507183204 | 77 | 76 | 0.9 | 0.9 | 0.00 | 0.00 | 0.00 | 88 | 1011.9 |
| 20260507182703 | 77 | 64 | 0.9 | 0.9 | 0.00 | 0.00 | 0.00 | 87 | 1011.9 |
| 20260507182203 | 78 | 78 | 0.0 | 2.6 | 0.00 | 0.00 | 0.00 | 87 | 1011.8 |
| 20260507181703 | 78 | 88 | 1.7 | 2.6 | 0.00 | 0.00 | 0.00 | 87 | 1011.8 |
| 20260507181204 | 78 | 60 | 0.0 | 1.7 | 0.00 | 0.00 | 0.00 | 86 | 1011.9 |
| 20260507180704 | 78 | 53 | 0.0 | 0.0 | 0.00 | 0.00 | 0.00 | 87 | 1012.1 |
| 20260507180204 | 78 | 173 | 0.0 | 0.0 | 0.00 | 0.00 | 0.00 | 87 | 1012.2 |
| 20260507174703 | 78 | 158 | 0.0 | 0.9 | 0.00 | 0.00 | 0.00 | 88 | 1012.2 |
| 20260507173704 | 77 | 90 | 0.0 | 1.7 | 0.00 | 0.00 | 0.00 | 88 | 1012.1 |
| 20260507173204 | 77 | 153 | 0.0 | 1.7 | 0.00 | 0.00 | 0.00 | 88 | 1012.3 |
| 20260507172704 | 78 | 99 | 0.9 | 1.7 | 0.00 | 0.00 | 0.00 | 88 | 1012.3 |
| 20260507172203 | 78 | 166 | 0.9 | 1.7 | 0.00 | 0.00 | 0.00 | 88 | 1012.3 |
| 20260507171204 | 78 | 123 | 2.6 | 2.6 | 0.00 | 0.00 | 0.00 | 88 | 1012.1 |
| 20260507170710 | 78 | 143 | 1.7 | 2.6 | 0.00 | 0.00 | 0.00 | 88 | 1012.3 |
| 20260507165706 | 78 | 72 | 0.9 | 0.9 | 0.00 | 0.00 | 0.00 | 88 | 1012.3 |
| 20260507164704 | 78 | 68 | 0.9 | 1.7 | 0.00 | 0.00 | 0.00 | 88 | 1012.4 |
| 20260507164203 | 78 | 78 | 0.9 | 2.6 | 0.00 | 0.00 | 0.00 | 87 | 1012.5 |
| 20260507163704 | 78 | 52 | 0.9 | 1.7 | 0.00 | 0.00 | 0.00 | 88 | 1012.5 |
| 20260507163203 | 78 | 24 | 0.9 | 1.7 | 0.00 | 0.00 | 0.00 | 87 | 1012.5 |
| 20260507162204 | 78 | 77 | 0.9 | 1.7 | 0.00 | 0.00 | 0.00 | 88 | 1012.6 |
| 20260507161705 | 78 | 13 | 0.9 | 1.7 | 0.00 | 0.00 | 0.00 | 87 | 1012.7 |
| 20260507161204 | 78 | 72 | 0.0 | 0.9 | 0.00 | 0.00 | 0.00 | 87 | 1012.6 |
| 20260507160703 | 78 | 150 | 0.0 | 1.7 | 0.00 | 0.00 | 0.00 | 87 | 1012.6 |
| 20260507155203 | 78 | 37 | 0.9 | 2.6 | 0.00 | 0.00 | 0.00 | 87 | 1012.7 |
| 20260507154704 | 78 | 149 | 0.9 | 1.7 | 0.00 | 0.00 | 0.00 | 87 | 1012.6 |
| 20260507154204 | 78 | 211 | 0.0 | 0.9 | 0.00 | 0.00 | 0.00 | 87 | 1012.6 |
| 20260507153704 | 78 | 173 | 0.0 | 0.9 | 0.00 | 0.00 | 0.00 | 87 | 1012.6 |
| 20260507153204 | 78 | 163 | 0.9 | 1.7 | 0.00 | 0.00 | 0.00 | 87 | 1012.7 |
| 20260507152703 | 78 | 155 | 0.9 | 2.6 | 0.00 | 0.00 | 0.00 | 87 | 1012.5 |
| 20260507152204 | 78 | 158 | 1.7 | 2.6 | 0.00 | 0.00 | 0.00 | 87 | 1012.6 |
| 20260507151703 | 78 | 148 | 1.7 | 2.6 | 0.00 | 0.00 | 0.00 | 87 | 1012.8 |
| 20260507151204 | 78 | 154 | 1.7 | 2.6 | 0.00 | 0.00 | 0.00 | 87 | 1012.8 |
| 20260507150703 | 78 | 162 | 1.7 | 2.6 | 0.00 | 0.00 | 0.00 | 87 | 1012.7 |
| 20260507150204 | 78 | 168 | 0.9 | 2.6 | 0.00 | 0.00 | 0.00 | 86 | 1012.8 |
| 20260507145204 | 78 | 160 | 2.6 | 2.6 | 0.00 | 0.00 | 0.00 | 87 | 1012.8 |
| 20260507144204 | 79 | 156 | 0.9 | 2.6 | 0.00 | 0.00 | 0.00 | 87 | 1012.8 |
| 20260507143704 | 79 | 118 | 1.7 | 2.6 | 0.00 | 0.00 | 0.00 | 87 | 1012.8 |
| 20260507143204 | 79 | 155 | 1.7 | 4.3 | 0.00 | 0.00 | 0.00 | 86 | 1012.6 |
| 20260507142704 | 79 | 161 | 1.7 | 4.3 | 0.00 | 0.00 | 0.00 | 86 | 1012.7 |
| 20260507142204 | 79 | 85 | 1.7 | 2.6 | 0.00 | 0.00 | 0.00 | 86 | 1012.7 |
| 20260507141703 | 79 | 128 | 1.7 | 2.6 | 0.00 | 0.00 | 0.00 | 86 | 1012.7 |
| 20260507141203 | 79 | 151 | 0.9 | 1.7 | 0.00 | 0.00 | 0.00 | 86 | 1012.5 |
| 20260507140204 | 79 | 168 | 2.6 | 4.3 | 0.00 | 0.00 | 0.00 | 86 | 1012.3 |
| 20260507135203 | 79 | 164 | 0.9 | 4.3 | 0.00 | 0.00 | 0.00 | 86 | 1012.3 |
| 20260507134704 | 79 | 99 | 0.9 | 2.6 | 0.00 | 0.00 | 0.00 | 86 | 1012.2 |
| 20260507134204 | 79 | 146 | 1.7 | 2.6 | 0.00 | 0.00 | 0.00 | 86 | 1012.0 |
| 20260507133704 | 79 | 145 | 2.6 | 4.3 | 0.00 | 0.00 | 0.00 | 86 | 1012.1 |
| 20260507133204 | 79 | 129 | 1.7 | 2.6 | 0.00 | 0.00 | 0.00 | 86 | 1012.0 |
| 20260507132704 | 79 | 125 | 2.6 | 2.6 | 0.00 | 0.00 | 0.00 | 86 | 1011.8 |
| 20260507132203 | 79 | 172 | 0.9 | 2.6 | 0.00 | 0.00 | 0.00 | 86 | 1011.6 |
| 20260507131704 | 79 | 169 | 0.9 | 2.6 | 0.00 | 0.00 | 0.00 | 86 | 1011.8 |
| 20260507131203 | 79 | 175 | 1.7 | 2.6 | 0.00 | 0.00 | 0.00 | 86 | 1011.9 |
| 20260507130704 | 79 | 189 | 0.9 | 2.6 | 0.00 | 0.00 | 0.00 | 86 | 1011.7 |
| 20260507130204 | 79 | 160 | 0.9 | 2.6 | 0.00 | 0.00 | 0.00 | 85 | 1011.6 |
| 20260507125703 | 79 | 154 | 1.7 | 5.2 | 0.00 | 0.00 | 0.00 | 85 | 1011.3 |
| 20260507125203 | 79 | 204 | 0.9 | 2.6 | 0.00 | 0.00 | 0.00 | 86 | 1011.3 |
| 20260507124709 | 79 | 206 | 0.9 | 2.6 | 0.00 | 0.00 | 0.00 | 86 | 1011.4 |
| 20260507123703 | 79 | 113 | 2.6 | 6.1 | 0.00 | 0.00 | 0.00 | 86 | 1011.0 |
| 20260507123202 | 79 | 143 | 3.5 | 6.1 | 0.00 | 0.00 | 0.00 | 86 | 1011.0 |
| 20260507122703 | 79 | 149 | 0.9 | 5.2 | 0.00 | 0.00 | 0.00 | 86 | 1011.1 |
| 20260507122203 | 79 | 165 | 3.5 | 5.2 | 0.00 | 0.00 | 0.00 | 86 | 1011.1 |
| 20260507121702 | 79 | 157 | 1.7 | 5.2 | 0.00 | 0.00 | 0.00 | 85 | 1010.9 |
| 20260507121203 | 79 | 137 | 2.6 | 4.3 | 0.00 | 0.00 | 0.00 | 85 | 1010.8 |
| 20260507120703 | 79 | 170 | 2.6 | 8.7 | 0.00 | 0.00 | 0.00 | 85 | 1011.0 |
| 20260507120202 | 79 | 152 | 1.7 | 2.6 | 0.00 | 0.00 | 0.00 | 85 | 1011.1 |
| 20260507115703 | 79 | 143 | 1.7 | 4.3 | 0.00 | 0.00 | 0.00 | 84 | 1010.9 |
| 20260507115203 | 79 | 141 | 1.7 | 5.2 | 0.00 | 0.00 | 0.00 | 84 | 1010.8 |
| 20260507114703 | 79 | 161 | 3.5 | 5.2 | 0.00 | 0.00 | 0.00 | 84 | 1010.7 |
| 20260507114203 | 80 | 187 | 2.6 | 5.2 | 0.00 | 0.00 | 0.00 | 84 | 1010.7 |
| 20260507113703 | 80 | 136 | 0.9 | 8.7 | 0.00 | 0.00 | 0.00 | 84 | 1010.7 |
| 20260507113203 | 80 | 167 | 0.9 | 6.1 | 0.00 | 0.00 | 0.00 | 84 | 1010.6 |
| 20260507112703 | 80 | 205 | 1.7 | 5.2 | 0.00 | 0.00 | 0.00 | 84 | 1010.3 |
| 20260507111703 | 80 | 218 | 2.6 | 6.1 | 0.00 | 0.00 | 0.00 | 83 | 1010.2 |
| 20260507111203 | 80 | 151 | 2.6 | 6.1 | 0.00 | 0.00 | 0.00 | 82 | 1010.3 |
| 20260507110703 | 81 | 143 | 2.6 | 5.2 | 0.00 | 0.00 | 0.00 | 82 | 1010.1 |
| 20260507110203 | 81 | 186 | 0.9 | 2.6 | 0.00 | 0.00 | 0.00 | 82 | 1010.1 |
| 20260507105703 | 81 | 182 | 0.9 | 2.6 | 0.00 | 0.00 | 0.00 | 81 | 1010.0 |
| 20260507105203 | 81 | 230 | 1.7 | 2.6 | 0.00 | 0.00 | 0.00 | 81 | 1010.1 |
| 20260507104702 | 82 | 184 | 0.9 | 2.6 | 0.00 | 0.00 | 0.00 | 81 | 1010.1 |
| 20260507103702 | 82 | 174 | 0.9 | 2.6 | 0.00 | 0.00 | 0.00 | 80 | 1010.3 |
| 20260507103202 | 83 | 233 | 0.9 | 1.7 | 0.00 | 0.00 | 0.00 | 79 | 1010.3 |
| 20260507102702 | 83 | 180 | 0.9 | 2.6 | 0.00 | 0.00 | 0.00 | 79 | 1010.4 |
| 20260507101702 | 83 | 145 | 3.5 | 7.0 | 0.00 | 0.00 | 0.00 | 78 | 1010.5 |
| 20260507101203 | 84 | 131 | 3.5 | 8.7 | 0.00 | 0.00 | 0.00 | 77 | 1010.4 |
| 20260507100703 | 85 | 125 | 1.7 | 4.3 | 0.00 | 0.00 | 0.00 | 75 | 1010.4 |
| 20260507100203 | 85 | 181 | 0.9 | 6.1 | 0.00 | 0.00 | 0.00 | 74 | 1010.4 |
| 20260507095703 | 85 | 183 | 1.7 | 4.3 | 0.00 | 0.00 | 0.00 | 74 | 1010.3 |
| 20260507095203 | 85 | 192 | 2.6 | 7.0 | 0.00 | 0.00 | 0.00 | 74 | 1010.2 |
| 20260507094203 | 86 | 202 | 1.7 | 4.3 | 0.00 | 0.00 | 0.00 | 73 | 1010.1 |
| 20260507093702 | 87 | 234 | 1.7 | 2.6 | 0.00 | 0.00 | 0.00 | 72 | 1010.2 |
| 20260507092203 | 87 | 204 | 1.7 | 5.2 | 0.00 | 0.00 | 0.00 | 73 | 1010.2 |
| 20260507091703 | 87 | 206 | 1.7 | 5.2 | 0.00 | 0.00 | 0.00 | 73 | 1010.1 |
| 20260507091202 | 87 | 162 | 2.6 | 7.0 | 0.00 | 0.00 | 0.00 | 73 | 1010.1 |
| 20260507090702 | 87 | 191 | 2.6 | 7.0 | 0.00 | 0.00 | 0.00 | 73 | 1010.2 |
| 20260507090203 | 87 | 176 | 1.7 | 5.2 | 0.00 | 0.00 | 0.00 | 73 | 1010.2 |
| 20260507085704 | 87 | 193 | 2.6 | 5.2 | 0.00 | 0.00 | 0.00 | 73 | 1010.2 |
| 20260507085203 | 87 | 129 | 2.6 | 7.0 | 0.00 | 0.00 | 0.00 | 73 | 1010.2 |
| 20260507084202 | 87 | 106 | 2.6 | 7.0 | 0.00 | 0.00 | 0.00 | 72 | 1010.3 |
| 20260507083202 | 87 | 200 | 1.7 | 4.3 | 0.00 | 0.00 | 0.00 | 72 | 1010.3 |
| 20260507082203 | 87 | 143 | 5.2 | 10.4 | 0.00 | 0.00 | 0.00 | 71 | 1010.3 |
| 20260507081703 | 87 | 202 | 1.7 | 7.0 | 0.00 | 0.00 | 0.00 | 71 | 1010.3 |
| 20260507081202 | 87 | 198 | 2.6 | 7.8 | 0.00 | 0.00 | 0.00 | 72 | 1010.4 |
| 20260507080704 | 87 | 172 | 2.6 | 7.8 | 0.00 | 0.00 | 0.00 | 71 | 1010.4 |
| 20260507080202 | 87 | 214 | 4.3 | 10.4 | 0.00 | 0.00 | 0.00 | 72 | 1010.4 |
| 20260507075703 | 87 | 145 | 4.3 | 8.7 | 0.00 | 0.00 | 0.00 | 72 | 1010.5 |
| 20260507075203 | 87 | 141 | 6.1 | 8.7 | 0.00 | 0.00 | 0.00 | 73 | 1010.6 |
| 20260507074203 | 86 | 148 | 2.6 | 6.1 | 0.00 | 0.00 | 0.00 | 74 | 1010.8 |
| 20260507073703 | 86 | 182 | 0.9 | 4.3 | 0.00 | 0.00 | 0.00 | 75 | 1010.7 |
| 20260507073203 | 85 | 239 | 1.7 | 7.0 | 0.00 | 0.00 | 0.00 | 75 | 1010.8 |
| 20260507072703 | 86 | 158 | 3.5 | 7.0 | 0.00 | 0.00 | 0.00 | 74 | 1010.8 |
| 20260507072202 | 86 | 172 | 3.5 | 8.7 | 0.00 | 0.00 | 0.00 | 74 | 1010.9 |
| 20260507071702 | 86 | 138 | 2.6 | 8.7 | 0.00 | 0.00 | 0.00 | 73 | 1010.7 |
| 20260507071203 | 87 | 181 | 2.6 | 7.0 | 0.00 | 0.00 | 0.00 | 72 | 1010.8 |
| 20260507070703 | 87 | 236 | 1.7 | 5.2 | 0.00 | 0.00 | 0.00 | 72 | 1010.9 |
| 20260507065703 | 87 | 155 | 3.5 | 7.0 | 0.00 | 0.00 | 0.00 | 71 | 1011.0 |
| 20260507065202 | 87 | 210 | 2.6 | 6.1 | 0.00 | 0.00 | 0.00 | 71 | 1011.0 |
| 20260507064703 | 88 | 223 | 1.7 | 6.1 | 0.00 | 0.00 | 0.00 | 70 | 1011.1 |
| 20260507064202 | 89 | 215 | 1.7 | 2.6 | 0.00 | 0.00 | 0.00 | 69 | 1011.2 |
| 20260507063202 | 89 | 258 | 2.6 | 6.1 | 0.00 | 0.00 | 0.00 | 69 | 1011.2 |
| 20260507061703 | 90 | 166 | 4.3 | 8.7 | 0.00 | 0.00 | 0.00 | 68 | 1011.3 |
| 20260507061203 | 90 | 293 | 0.9 | 2.6 | 0.00 | 0.00 | 0.00 | 68 | 1011.3 |
| 20260507060703 | 89 | 237 | 0.0 | 5.2 | 0.00 | 0.00 | 0.00 | 69 | 1011.4 |
| 20260507060203 | 88 | 146 | 2.6 | 4.3 | 0.00 | 0.00 | 0.00 | 70 | 1011.4 |
| 20260507055702 | 88 | 48 | 0.9 | 5.2 | 0.00 | 0.00 | 0.00 | 70 | 1011.5 |
| 20260507055203 | 89 | 118 | 3.5 | 7.8 | 0.00 | 0.00 | 0.00 | 69 | 1011.5 |
| 20260507054203 | 90 | 220 | 3.5 | 7.8 | 0.00 | 0.00 | 0.00 | 68 | 1011.7 |
| 20260507053703 | 91 | 199 | 3.5 | 6.1 | 0.00 | 0.00 | 0.00 | 67 | 1011.8 |
| 20260507052203 | 91 | 198 | 2.6 | 7.0 | 0.00 | 0.00 | 0.00 | 67 | 1011.9 |
| 20260507051702 | 90 | 134 | 2.6 | 7.8 | 0.00 | 0.00 | 0.00 | 69 | 1011.7 |
| 20260507051203 | 90 | 181 | 5.2 | 10.4 | 0.00 | 0.00 | 0.00 | 68 | 1011.8 |